This is the latest recevied weather packets stored in our database for station/object KI4NG. If no packets are shown the sender has not sent any weather packets the latest 10 day(s).
| Time | Temp. | Humidity | Pressure | Rain* | Wind** | Luminosity | Snow |
|---|---|---|---|---|---|---|---|
| 1788307324 | 27.22° C | 73% | 1020.4 hPa | 0 mm | - | 4 W/m² | - |
| 1788307023 | 27.78° C | 72% | 1020.3 hPa | 0 mm | - | 7 W/m² | - |
| 1788306718 | 27.78° C | 72% | 1020.7 hPa | 0 mm | - | 10 W/m² | - |
| 1788306418 | 28.33° C | 71% | 1020.7 hPa | 0 mm | - | 15 W/m² | - |
| 1788306113 | 28.33° C | 73% | 1020.7 hPa | 0 mm | - | 17 W/m² | - |
| 1788305807 | 28.89° C | 71% | 1020.8 hPa | 0 mm | - | 21 W/m² | - |
| 1788305503 | 28.89° C | 69% | 1020.8 hPa | 0 mm | - | 26 W/m² | - |
| 1788305198 | 29.44° C | 69% | 1020.8 hPa | 0 mm | - | 29 W/m² | - |
| 1788304893 | 29.44° C | 67% | 1020.9 hPa | 0 mm | - | 32 W/m² | - |
| 1788304590 | 30° C | 67% | 1020.8 hPa | 0 mm | - | 35 W/m² | - |
| 1788304286 | 30° C | 66% | 1020.8 hPa | 0 mm | - | 39 W/m² | - |
| 1788303982 | 30.56° C | 65% | 1021 hPa | 0 mm | - | 42 W/m² | - |
| 1788303681 | 30.56° C | 63% | 1021 hPa | 0 mm | - | 44 W/m² | - |
| 1788303376 | 31.11° C | 62% | 1020.8 hPa | 0 mm | - | 47 W/m² | - |
| 1788303076 | 31.67° C | 60% | 1021.1 hPa | 0 mm | - | 50 W/m² | - |
| 1788302772 | 31.67° C | 59% | 1021 hPa | 0 mm | - | 53 W/m² | - |
| 1788302468 | 32.22° C | 58% | 1020.8 hPa | 0 mm | - | 104 W/m² | - |
| 1788302163 | 32.22° C | 57% | 1021 hPa | 0 mm | - | 138 W/m² | - |
| 1788301858 | 32.22° C | 59% | 1021.1 hPa | 0 mm | - | 159 W/m² | - |
| 1788301555 | 31.67° C | 58% | 1020.9 hPa | 0 mm | - | 177 W/m² | - |
| 1788301250 | 32.22° C | 60% | 1020.8 hPa | 0 mm | - | 194 W/m² | - |
| 1788300947 | 32.78° C | 57% | 1020.9 hPa | 0 mm | - | 189 W/m² | - |
| 1788300642 | 33.33° C | 57% | 1020.8 hPa | 0 mm | - | 245 W/m² | - |
| 1788300341 | 32.78° C | 60% | 1020.8 hPa | 0 mm | - | 253 W/m² | - |
| 1788300040 | 32.78° C | 60% | 1020.9 hPa | 0 mm | - | 231 W/m² | - |
* Rain latest hour (hover to see other rain measurements)
** Current wind speed in m/s (hover to see current wind gust speed)